Location: Arcizac
(43.0933°N, 0.0112°E)
Time: 09:12:54
(UTC+00:00)

SL-4 R/B - Pass Details

Date: 14 December 2019
Orbit: 428 x 667 km, 51.6° (Epoch: 26 January)

Event Time Altitude Azimuth Distance (km) Brightness Sun altitude
Rises 18:20:09 0° 302° (WNW) 2,558 6.1 -20.1°
Reaches altitude 10° 18:22:25 10° 313° (NW) 1,716 5.0 -20.5°
Enters shadow 18:25:21 30° 0° (N) 955 3.1 -21.0°
